Location: Bremen
(53.0793°N, 8.8017°E)
Time: 08:48:22
(UTC+01:00)

Vanguard 1 Rocket - Pass Details

Date: 03 December 2021
Orbit: 651 x 4224 km, 34.3° (Epoch: 23 January)

Event Time Altitude Azimuth Distance (km) Brightness Sun altitude
Rises 05:53:37 0° 253° (WSW) 5,611 - -20.6°
Reaches altitude 10° 05:56:58 10° 246° (WSW) 5,013 - -20.1°
Exits shadow 05:57:55 13° 244° (WSW) 4,867 10.6 -20.0°
Maximum altitude 06:11:19 41° 184° (S) 4,364 10.8 -18.0°
Drops below altitude 10° 06:33:09 10° 125° (SE) 7,412 13.2 -14.8°
Sets 06:39:38 0° 119° (ESE) 8,449 14.1 -13.9°
